Terug naar catalogus

STARLINK-32811

ActiefCommunicatieVLEO
NORAD 63039·PAYLOAD·🇺🇸 United States

Gelanceerd Feb 18, 2025 vanaf Cape Canaveral Space Force Station

Loading…

Volgende Passages (komende 24 uur)

TLE

VersSource: CelesTrak SupGP

Epoch: Sep 14, 2026, 20:39 UTC

1 63039C 25034L   26257.86090278 -.00049686  00000+0 -14684-2 0  2573
2 63039  53.1569  96.3685 0001301  87.9310 254.8725 15.34405926    15

Volg STARLINK-32811 in realtime met AllMySat

Download on the App Store